Weather History for KIDA - February, 2013

Change the Weather History Date:

Saturday, February 23, 2013

  Actual Average Record
Temperature  
Mean Temperature 23 °F 27 °F  
Max Temperature 30 °F 37 °F 52 °F (1954)
Min Temperature 16 °F 17 °F -18 °F (1955)
Degree Days  
Heating Degree Days 42 38  
Month to date heating degree days 929 956  
Since 1 July heating degree days 5313 5619  
Cooling Degree Days 0 0  
Month to date cooling degree days 0 0  
Year to date cooling degree days 0 0  
Moisture  
Dew Point 21 °F    
Average Humidity 71    
Maximum Humidity 92    
Minimum Humidity 50    
Precipitation  
Precipitation 0.06 in 0.03 in 0.32 in (1957)
Month to date precipitation 0.06 0.53  
Year to date precipitation 0.37 1.22  
Sea Level Pressure  
Sea Level Pressure 29.79 in    
Wind  
Wind Speed 14 mph (SW)    
Max Wind Speed 35 mph    
Max Gust Speed 43 mph    
Visibility 4 miles    
Events Fog , Snow    
T = Trace of Precipitation, MM = Missing Value Source: NWS Daily Summary

Daily Weather History Graph

Daily Weather History Graph

Search for Another Location

Airport or City:

Trip Planner

Search our weather history database for the weather conditions in past years. The results will help you decide how hot, cold, wet, or windy it might be!

Date:

Astronomy

Feb. 23, 2013 Rise Set
Actual Time 7:13 AM MST 6:09 PM MST
Civil Twilight 6:45 AM MST 6:38 PM MST
Nautical Twilight 6:11 AM MST 7:12 PM MST
Astronomical Twilight 5:38 AM MST 7:45 PM MST
Moon 4:22 PM MST (2/23) 5:41 AM MST (2/23)
Length of Visible Light 11h 53m
Length of Day
10h 55m
Waxing Gibbous, 95% of the Moon is Illuminated
Feb 23
Waxing Gibbous
Feb 25
Full
Mar 4
Last Quarter
Mar 11
New
Mar 19
First Quarter

Hourly Weather History & Observations

Time (MST) Temp. Windchill Dew Point Humidity Pressure Visibility Wind Dir Wind Speed Gust Speed Precip Events Conditions
12:01 AM 30.2 °F 18.1 °F 24.8 °F 80% 29.87 in 1.0 mi SSW 18.4 mph 24.2 mph 0.00 in Snow Light Snow
12:32 AM 30.2 °F 17.1 °F 24.8 °F 80% 29.85 in 1.0 mi SSW 21.9 mph 31.1 mph 0.00 in Snow Light Snow
12:53 AM 28.9 °F 15.1 °F 25.0 °F 85% 29.92 in 1.2 mi South 23.0 mph 28.8 mph 0.00 in Snow Light Snow
1:53 AM 28.9 °F 17.3 °F 24.1 °F 82% 29.88 in 1.5 mi South 16.1 mph - 0.00 in Snow Light Snow
2:10 AM 28.4 °F 16.2 °F 24.8 °F 86% 29.80 in 2.0 mi South 17.3 mph 24.2 mph 0.00 in Snow Light Snow
2:24 AM 28.4 °F 17.0 °F 24.8 °F 86% 29.79 in 1.8 mi South 15.0 mph - 0.00 in Snow Light Snow
2:32 AM 28.4 °F 16.6 °F 24.8 °F 86% 29.79 in 1.8 mi South 16.1 mph - 0.00 in Snow Light Snow
2:43 AM 28.4 °F 16.6 °F 24.8 °F 86% 29.78 in 2.5 mi South 16.1 mph - 0.00 in Snow Light Snow
2:53 AM 28.9 °F 16.9 °F 24.1 °F 82% 29.85 in 2.5 mi South 17.3 mph - 0.00 in Snow Light Snow
3:09 AM 28.4 °F 18.0 °F 24.8 °F 86% 29.77 in 4.0 mi South 12.7 mph - 0.00 in Snow Light Snow
3:53 AM 28.9 °F 18.6 °F 23.0 °F 78% 29.81 in 5.0 mi South 12.7 mph - 0.00 in Snow Light Snow
4:23 AM 28.4 °F 17.5 °F 23.0 °F 80% 29.72 in 2.0 mi South 13.8 mph - 0.00 in Snow Light Snow
4:45 AM 28.4 °F 19.1 °F 23.0 °F 80% 29.71 in 5.0 mi South 10.4 mph - 0.00 in Snow Light Snow
4:53 AM 28.9 °F 19.8 °F 23.0 °F 78% 29.76 in 7.0 mi South 10.4 mph - 0.00 in   Overcast
5:53 AM 30.0 °F 22.4 °F 21.9 °F 72% 29.73 in 9.0 mi South 8.1 mph - 0.00 in   Overcast
6:25 AM 30.2 °F 21.3 °F 21.2 °F 69% 29.66 in 9.0 mi South 10.4 mph - 0.00 in Snow Light Snow
6:32 AM 30.2 °F 21.9 °F 21.2 °F 69% 29.66 in 4.0 mi South 9.2 mph - 0.00 in Snow Light Snow
6:45 AM 30.2 °F 21.3 °F 23.0 °F 75% 29.66 in 1.5 mi South 10.4 mph - 0.00 in Snow Light Snow
6:49 AM 28.4 °F 19.1 °F 23.0 °F 80% 29.66 in 0.8 mi South 10.4 mph - 0.01 in Snow Light Snow
6:53 AM 28.9 °F 19.2 °F 24.1 °F 82% 29.73 in 0.5 mi South 11.5 mph - 0.01 in Snow Snow
7:02 AM 28.4 °F 18.5 °F 24.8 °F 86% 29.67 in 0.5 mi SSW 11.5 mph - 0.01 in Fog , Snow Snow
7:53 AM 28.0 °F 16.5 °F 25.0 °F 88% 29.74 in 0.2 mi South 15.0 mph - 0.03 in Fog , Snow Heavy Snow
8:22 AM 28.4 °F 17.5 °F 24.8 °F 86% 29.66 in 0.5 mi South 13.8 mph 21.9 mph 0.01 in Fog , Snow Light Snow
8:30 AM 28.4 °F 16.6 °F 24.8 °F 86% 29.66 in 1.0 mi South 16.1 mph 24.2 mph 0.01 in Snow Light Snow
8:45 AM 28.4 °F 13.3 °F 24.8 °F 86% 29.66 in 0.5 mi South 27.6 mph 33.4 mph 0.01 in Fog , Snow Light Snow
8:53 AM 28.9 °F 14.0 °F 25.0 °F 85% 29.72 in 0.2 mi SSW 27.6 mph 38.0 mph 0.01 in Fog , Snow Snow
9:05 AM 28.4 °F 13.5 °F 24.8 °F 86% 29.67 in 0.2 mi SSW 26.5 mph 36.8 mph 0.00 in Fog , Snow Snow
9:32 AM 28.4 °F 12.7 °F 24.8 °F 86% 29.67 in 0.2 mi SSW 29.9 mph 34.5 mph 0.00 in Fog , Snow Snow
9:53 AM 27.0 °F 11.0 °F 24.1 °F 89% 29.75 in 0.5 mi SSW 28.8 mph 35.7 mph 0.00 in Fog Light Freezing Fog
10:13 AM 26.6 °F 11.1 °F 24.8 °F 93% 29.68 in 0.2 mi SSW 26.5 mph - 0.01 in Fog , Snow Light Snow
10:37 AM 26.6 °F 10.8 °F 24.8 °F 93% 29.66 in 0.5 mi SSW 27.6 mph 33.4 mph 0.01 in Fog , Snow Light Snow
10:53 AM 27.0 °F 12.2 °F 23.0 °F 85% 29.75 in 0.8 mi SSW 24.2 mph - 0.01 in Snow Light Snow
11:07 AM 26.6 °F 12.0 °F 24.8 °F 93% 29.68 in 1.0 mi SW 23.0 mph - 0.00 in Snow Light Snow
11:40 AM 26.6 °F 12.7 °F 23.0 °F 86% 29.69 in 1.0 mi SSW 20.7 mph - 0.00 in Snow Light Snow
11:53 AM 28.0 °F 14.3 °F 23.0 °F 81% 29.76 in 1.0 mi NW 21.9 mph 27.6 mph 0.00 in Snow Light Snow
12:11 PM 28.4 °F 15.1 °F 21.2 °F 74% 29.71 in 1.5 mi North 20.7 mph 32.2 mph 0.00 in Snow Light Snow
12:53 PM 27.0 °F 13.9 °F 21.0 °F 78% 29.81 in 1.5 mi NNW 18.4 mph 25.3 mph 0.00 in Snow Light Snow
1:13 PM 26.6 °F 15.2 °F 21.2 °F 80% 29.74 in 1.5 mi WNW 13.8 mph - 0.00 in Snow Light Snow
1:20 PM 26.6 °F 16.2 °F 21.2 °F 80% 29.74 in 2.0 mi WNW 11.5 mph - 0.00 in Snow Light Snow
1:29 PM 28.4 °F 18.5 °F 19.4 °F 69% 29.74 in 10.0 mi WNW 11.5 mph - 0.00 in   Mostly Cloudy
1:53 PM 28.9 °F 22.8 °F 19.0 °F 67% 29.82 in 10.0 mi WNW 5.8 mph - 0.00 in   Mostly Cloudy
2:53 PM 28.9 °F 22.8 °F 19.9 °F 69% 29.85 in 10.0 mi SW 5.8 mph - N/A   Overcast
3:53 PM 28.9 °F 17.7 °F 14.0 °F 54% 29.88 in 10.0 mi NNW 15.0 mph - N/A   Overcast
4:53 PM 28.0 °F 18.1 °F 12.9 °F 53% 29.91 in 10.0 mi NNW 11.5 mph - N/A   Overcast
5:53 PM 27.0 °F 18.7 °F 12.0 °F 53% 29.94 in 10.0 mi NW 8.1 mph - N/A   Overcast
6:53 PM 25.0 °F 18.1 °F 10.9 °F 55% 29.99 in 10.0 mi NW 5.8 mph - N/A   Overcast
7:53 PM 25.0 °F 18.1 °F 16.0 °F 69% 30.01 in 10.0 mi South 5.8 mph - N/A   Overcast
8:53 PM 21.9 °F 17.2 °F 17.1 °F 82% 30.04 in 10.0 mi WSW 3.5 mph - N/A   Overcast
9:53 PM 17.1 °F 11.7 °F 8.1 °F 68% 30.08 in 10.0 mi NW 3.5 mph - N/A   Mostly Cloudy
10:53 PM 17.1 °F 3.6 °F 8.1 °F 68% 30.08 in 10.0 mi NNW 12.7 mph - N/A   Partly Cloudy
11:53 PM 17.1 °F 1.0 °F 8.1 °F 68% 30.09 in 10.0 mi NNW 18.4 mph - N/A   Clear